Regional Weather Roundup
Issued by NWS Green Bay, WI

Home | Current Version | Previous Version | Graphics & Text | Print | Product List | Glossary Off
Versions: 1 2 3 4 5 6 7 8 9 10 11 12 13 14 15 16 17 18 19 20 21 22 23 24 25 26 27 28 29 30 31 32 33 34 35 36 37 38 39 40 41 42 43 44 45 46 47 48 49 50

000
ASUS43 KGRB 202211
RWRGRB

NORTH-CENTRAL AND NORTHEAST WISCONSIN REGIONAL WEATHER ROUNDUP
NATIONAL WEATHER SERVICE GREEN BAY WI
400 PM CST TUE FEB 20 2018

WIZ005-009-010>012-018-019-202300-
NORTH CENTRAL WISCONSIN

CITY           SKY/WX    TMP DP  RH WIND       PRES   REMARKS
IRONWOOD       LGT SNOW  19  17  92 W9        29.90R FOG     WCI   8
MANITOWISH WTR CLOUDY    21  21 100 NW10      29.85R WCI  10
ARBOR VITAE    CLOUDY    24  22  91 NW7       29.84R
EAGLE RIVER    CLOUDY    25  23  94 NW10      29.83R
LAND O LAKES   CLOUDY    25  22  91 NW6       29.83R
RHINELANDER    CLOUDY    25  23  92 W14       29.85R
PHILLIPS       CLOUDY    22  20  94 W6        29.88R
ANTIGO         CLOUDY    27  26  95 W13       29.84R
TOMAHAWK       CLOUDY    23  21  91 W9        29.88R
MERRILL        CLOUDY    26  23  91 W12G17    29.88R
$$

WIZ013-073-202300-
NORTHEAST WISCONSIN

CITY           SKY/WX    TMP DP  RH WIND       PRES   REMARKS
IRON MOUNTAIN  CLOUDY    32  28  85 W8        29.79R
MARINETTE      FOG       33  31  92 W3        29.84R VSB 3/4
OCONTO         CLOUDY    33  32  98 W5        29.84R
$$

WIZ017-030-035>037-045-202300-
CENTRAL WISCONSIN

CITY           SKY/WX    TMP DP  RH WIND       PRES   REMARKS
MEDFORD        CLOUDY    22  19  88 W10G18    29.89R
WAUSAU         CLOUDY    24  22  91 W15       29.88R
MOSINEE        CLOUDY    25  25 100 W14G22    29.90R
MARSHFIELD     CLOUDY    24  21  88 W13       29.91R
WISC RAPIDS    CLOUDY    27  23  85 NW13      29.93R
STEVENS POINT  CLOUDY    26  25  97 W10       29.90R
WAUPACA        CLOUDY    35  31  87 W13       29.88R
SHAWANO        CLOUDY    35  33  90 W9G18     29.84R
CLINTONVILLE   CLOUDY    34  31  88 W10       29.86R
WAUTOMA        CLOUDY    32  30  92 W17         N/A
$$

WIZ038-039-048-051-202300-
FOX VALLEY

CITY           SKY/WX    TMP DP  RH WIND       PRES   REMARKS
NWS GREEN BAY  CLOUDY    35  32  88 W8        29.84S
APPLETON       CLOUDY    34  34 100 W13       29.82F
OSHKOSH        PTSUNNY   35  33  92 W7        29.86R
FOND DU LAC    CLOUDY    36  32  85 W7        29.87R
$$

WIZ022-050-052-202300-
EAST CENTRAL WISCONSIN

CITY           SKY/WX    TMP DP  RH WIND       PRES   REMARKS
EPHRAIM        FOG       31  31  99 W3        29.82S VSB 1/2
WASHINGTON ISL CLOUDY    31  31  99 W5        29.82R FOG
STURGEON BAY   CLOUDY    34  32  92 W9        29.84R
MANITOWOC      CLOUDY    36  33  89 W13       29.85R
SHEBOYGAN      CLOUDY    36  34  92 W16G25    29.84R
$$

LMZ563-521-522-541>543-202300-
LAKESHORE

STATION/POSITION TIME  TEMP    WIND        PRES    VSBY  WAVE
                       AIR SEA DIR/SP/G                  HT/PER
                 (UTC) (F)     (DEG/KT/KT) (MB)    (MI)  (FT/S)
SHEBOYGAN LKSHOR 2100   39     280/ 18/ 20 1010.3R
KEWAUNEE LKSHORE 2148   36     280/  9/ 12 1009.7R
MENOMINEE LKSHOR 2148   33     220/  7/  8 1010.0R
$$




USA.gov is the U.S. government's official web portal to all federal, state and local government web resources and services.